CCA1535 ZBAA-ZJSY

Flight info

Callsign CCA1535
Flight time 3h 32m
Altitude 36100
Route RUSDO W45 NUPTI R343 LBN BHY W70 NYB G221 UPRIS
Aircraft A339/H-SADE1E2E3GHIJ1J3J5M1P2RWXY/LB1

Departure

Time 2026-05-06 03:35
Airport Beijing Capital International Airport (ZBAA)

Arrival

Time 2026-05-06 07:08
Airport Sanya Phoenix International Airport (ZJSY)
Time Latitude Longitude Altitude Speed Heading
2026-05-06 03:20 40.05522 116.59483 131 ft 0 kts 263°
2026-05-06 03:27 40.05524 116.59499 131 ft 2 kts 263°
2026-05-06 03:27 40.05526 116.59519 131 ft 2 kts 263°
2026-05-06 03:28 40.05527 116.59534 131 ft 0 kts 263°
2026-05-06 03:28 40.05529 116.59551 131 ft 2 kts 241°
2026-05-06 03:28 40.05539 116.59566 131 ft 2 kts 213°
2026-05-06 03:28 40.05553 116.59573 131 ft 2 kts 187°
2026-05-06 03:29 40.05561 116.59574 131 ft 0 kts 172°
2026-05-06 03:29 40.05566 116.59573 131 ft 0 kts 173°
2026-05-06 03:31 40.05565 116.59573 131 ft 0 kts 173°
2026-05-06 03:31 40.05551 116.59576 131 ft 3 kts 174°
2026-05-06 03:32 40.05521 116.59579 131 ft 5 kts 174°
2026-05-06 03:32 40.05478 116.59586 131 ft 5 kts 173°
2026-05-06 03:32 40.05452 116.59608 131 ft 5 kts 119°
2026-05-06 03:32 40.05449 116.59666 131 ft 7 kts 82°
2026-05-06 03:33 40.05458 116.59743 131 ft 9 kts 82°
2026-05-06 03:33 40.05466 116.59822 131 ft 6 kts 82°
2026-05-06 03:33 40.05484 116.59887 131 ft 8 kts 60°
2026-05-06 03:33 40.05528 116.59945 131 ft 9 kts 38°
2026-05-06 03:34 40.05579 116.59996 131 ft 6 kts 38°
2026-05-06 03:34 40.05594 116.60006 131 ft 2 kts 359°
2026-05-06 03:34 40.05628 116.60001 131 ft 12 kts 353°
2026-05-06 03:34 40.05944 116.59950 131 ft 78 kts 353°
2026-05-06 03:35 40.06688 116.59834 131 ft 135 kts 353°
2026-05-06 03:35 40.07767 116.59670 265 ft 168 kts 353°
2026-05-06 03:35 40.08916 116.59489 879 ft 164 kts 355°
2026-05-06 03:35 40.10020 116.59315 1592 ft 157 kts 356°
2026-05-06 03:36 40.11073 116.59154 2223 ft 149 kts 355°
2026-05-06 03:36 40.12082 116.58999 2731 ft 146 kts 355°
2026-05-06 03:36 40.13098 116.58842 3182 ft 146 kts 355°
2026-05-06 03:36 40.14122 116.58683 3531 ft 154 kts 355°
2026-05-06 03:37 40.15251 116.58508 3814 ft 169 kts 355°
2026-05-06 03:37 40.16461 116.58321 4161 ft 181 kts 355°
2026-05-06 03:37 40.17744 116.58122 4487 ft 195 kts 355°
2026-05-06 03:37 40.19173 116.57899 4799 ft 213 kts 354°
2026-05-06 03:38 40.20695 116.57659 5133 ft 231 kts 354°
2026-05-06 03:38 40.22372 116.57394 5501 ft 249 kts 354°
2026-05-06 03:38 40.24149 116.57029 5996 ft 263 kts 345°
2026-05-06 03:38 40.25800 116.56029 6730 ft 267 kts 327°
2026-05-06 03:39 40.27249 116.54496 7498 ft 269 kts 319°
2026-05-06 03:39 40.28641 116.52873 8245 ft 271 kts 317°
2026-05-06 03:39 40.30039 116.51228 8968 ft 274 kts 316°
2026-05-06 03:39 40.31239 116.49268 9684 ft 275 kts 294°
2026-05-06 03:40 40.31694 116.46894 10418 ft 275 kts 273°
2026-05-06 03:40 40.31707 116.44305 10896 ft 288 kts 270°
2026-05-06 03:40 40.31694 116.41643 11292 ft 302 kts 270°
2026-05-06 03:40 40.31681 116.38881 12009 ft 305 kts 269°
2026-05-06 03:41 40.31674 116.36110 12834 ft 304 kts 269°
2026-05-06 03:41 40.31669 116.33351 13645 ft 304 kts 268°
2026-05-06 03:41 40.31664 116.30586 14400 ft 305 kts 268°
2026-05-06 03:41 40.31662 116.27815 15139 ft 307 kts 268°
2026-05-06 03:42 40.31658 116.25002 15900 ft 308 kts 268°
2026-05-06 03:42 40.31654 116.22201 16628 ft 310 kts 268°
2026-05-06 03:42 40.31651 116.19367 17297 ft 314 kts 268°
2026-05-06 03:42 40.31646 116.16518 17992 ft 316 kts 268°
2026-05-06 03:43 40.31642 116.13645 18723 ft 317 kts 268°
2026-05-06 03:43 40.31634 116.10743 19395 ft 319 kts 268°
2026-05-06 03:43 40.31627 116.07835 20002 ft 323 kts 268°
2026-05-06 03:43 40.31617 116.04885 20638 ft 325 kts 268°
2026-05-06 03:44 40.31606 116.01965 21284 ft 326 kts 266°
2026-05-06 03:44 40.31208 115.99023 21853 ft 329 kts 251°
2026-05-06 03:44 40.30099 115.96390 22407 ft 336 kts 236°
2026-05-06 03:44 40.28380 115.94256 22944 ft 347 kts 219°
2026-05-06 03:45 40.26249 115.92701 23462 ft 354 kts 214°
2026-05-06 03:45 40.24070 115.91200 23985 ft 357 kts 214°
2026-05-06 03:45 40.21873 115.89691 24531 ft 359 kts 214°
2026-05-06 03:45 40.19632 115.88155 25021 ft 362 kts 214°
2026-05-06 03:46 40.17410 115.86639 25521 ft 364 kts 215°
2026-05-06 03:46 40.15146 115.85100 25965 ft 367 kts 214°
2026-05-06 03:46 40.12893 115.83567 26410 ft 369 kts 214°
2026-05-06 03:46 40.10606 115.82019 26884 ft 371 kts 214°
2026-05-06 03:47 40.08310 115.80468 27318 ft 373 kts 214°
2026-05-06 03:47 40.05987 115.78894 27769 ft 374 kts 214°
2026-05-06 03:47 40.03680 115.77340 28165 ft 377 kts 214°
2026-05-06 03:47 40.01326 115.75751 28561 ft 379 kts 215°
2026-05-06 03:48 39.98997 115.74183 28954 ft 381 kts 215°
2026-05-06 03:48 39.96639 115.72592 29336 ft 383 kts 214°
2026-05-06 03:48 39.94241 115.70980 29742 ft 384 kts 215°
2026-05-06 03:48 39.91872 115.69386 30121 ft 386 kts 215°
2026-05-06 03:49 39.89540 115.67653 30434 ft 384 kts 220°
2026-05-06 03:49 39.87389 115.65665 30737 ft 383 kts 225°
2026-05-06 03:49 39.85390 115.63410 31073 ft 380 kts 230°
2026-05-06 03:49 39.83555 115.60904 31445 ft 378 kts 235°
2026-05-06 03:50 39.81949 115.58256 31764 ft 376 kts 240°
2026-05-06 03:50 39.80524 115.55376 32058 ft 376 kts 244°
2026-05-06 03:50 39.79265 115.52395 32388 ft 377 kts 246°
2026-05-06 03:50 39.78029 115.49429 32738 ft 377 kts 246°
2026-05-06 03:51 39.76779 115.46401 33056 ft 378 kts 246°
2026-05-06 03:51 39.75547 115.43373 33349 ft 379 kts 247°
2026-05-06 03:51 39.74336 115.40317 33624 ft 381 kts 247°
2026-05-06 03:51 39.73137 115.37276 33918 ft 383 kts 248°
2026-05-06 03:52 39.71908 115.34158 34232 ft 384 kts 247°
2026-05-06 03:52 39.70693 115.31091 34664 ft 383 kts 246°
2026-05-06 03:52 39.69481 115.28041 35163 ft 381 kts 247°
2026-05-06 03:52 39.68279 115.25007 35704 ft 377 kts 247°
2026-05-06 03:53 39.67090 115.22012 36214 ft 373 kts 246°
2026-05-06 03:53 39.65891 115.19003 36711 ft 370 kts 247°
2026-05-06 03:53 39.64712 115.16036 37122 ft 369 kts 247°
2026-05-06 03:53 39.63547 115.13117 37502 ft 367 kts 247°
2026-05-06 03:54 39.62384 115.10194 37928 ft 365 kts 247°
2026-05-06 03:54 39.61211 115.07265 38329 ft 363 kts 247°
2026-05-06 03:54 39.60055 115.04358 38674 ft 361 kts 246°
2026-05-06 03:54 39.58914 115.01508 38972 ft 361 kts 247°
2026-05-06 03:55 39.57749 114.98602 39183 ft 361 kts 247°
2026-05-06 03:55 39.56594 114.95717 39389 ft 362 kts 247°
2026-05-06 03:55 39.55421 114.92802 39553 ft 363 kts 247°
2026-05-06 03:55 39.54258 114.89904 39705 ft 364 kts 246°
2026-05-06 03:56 39.53083 114.86981 39860 ft 365 kts 246°
2026-05-06 03:56 39.51910 114.84070 39998 ft 366 kts 247°
2026-05-06 03:56 39.49555 114.78218 40056 ft 369 kts 246°
2026-05-06 03:57 39.47157 114.72286 40066 ft 371 kts 246°
2026-05-06 03:57 39.44784 114.66415 40065 ft 370 kts 246°
2026-05-06 03:58 39.42376 114.60479 40064 ft 372 kts 246°
2026-05-06 03:58 39.39976 114.54578 40065 ft 373 kts 246°
2026-05-06 03:59 39.37561 114.48640 40059 ft 374 kts 246°
2026-05-06 03:59 39.35131 114.42690 40049 ft 374 kts 246°
2026-05-06 04:00 39.32697 114.36753 40050 ft 375 kts 246°
2026-05-06 04:00 39.30268 114.30833 40051 ft 375 kts 246°
2026-05-06 04:01 39.27796 114.24885 40048 ft 377 kts 243°
2026-05-06 04:01 39.24589 114.19467 40054 ft 386 kts 232°
2026-05-06 04:02 39.20446 114.14875 40056 ft 397 kts 222°
2026-05-06 04:02 39.15511 114.11446 40048 ft 412 kts 211°
2026-05-06 04:03 39.09976 114.09194 40027 ft 421 kts 206°
2026-05-06 04:03 39.04302 114.07144 40018 ft 422 kts 205°
2026-05-06 04:04 38.98654 114.05128 40012 ft 421 kts 205°
2026-05-06 04:04 38.92971 114.03108 40013 ft 421 kts 205°
2026-05-06 04:05 38.87313 114.01101 40015 ft 421 kts 205°
2026-05-06 04:05 38.81666 113.99101 40012 ft 421 kts 205°
2026-05-06 04:06 38.76043 113.97112 40020 ft 420 kts 205°
2026-05-06 04:06 38.70412 113.95127 40021 ft 420 kts 205°
2026-05-06 04:07 38.64764 113.93122 40015 ft 419 kts 205°
2026-05-06 04:07 38.59136 113.91140 40004 ft 418 kts 205°
2026-05-06 04:08 38.53559 113.89182 39978 ft 418 kts 205°
2026-05-06 04:08 38.47928 113.87212 39954 ft 418 kts 205°
2026-05-06 04:09 38.42324 113.85251 39959 ft 418 kts 205°
2026-05-06 04:09 38.36725 113.83298 39950 ft 416 kts 205°
2026-05-06 04:10 38.31145 113.81356 39952 ft 415 kts 205°
2026-05-06 04:10 38.25562 113.79421 39963 ft 416 kts 205°
2026-05-06 04:11 38.19945 113.77480 39960 ft 415 kts 205°
2026-05-06 04:11 38.14379 113.75562 39964 ft 415 kts 205°
2026-05-06 04:12 38.08774 113.73628 39972 ft 415 kts 205°
2026-05-06 04:12 38.03202 113.71716 39989 ft 414 kts 204°
2026-05-06 04:13 37.97625 113.69804 39977 ft 414 kts 204°
2026-05-06 04:13 37.92065 113.67902 39974 ft 416 kts 205°
2026-05-06 04:14 37.86430 113.65972 39985 ft 417 kts 205°
2026-05-06 04:14 37.80845 113.64063 39988 ft 419 kts 204°
2026-05-06 04:15 37.75191 113.62138 39981 ft 418 kts 204°
2026-05-06 04:15 37.69581 113.60229 40004 ft 419 kts 204°
2026-05-06 04:16 37.63933 113.58306 40002 ft 420 kts 204°
2026-05-06 04:16 37.58274 113.56387 40021 ft 424 kts 204°
2026-05-06 04:17 37.52622 113.54472 40037 ft 421 kts 204°
2026-05-06 04:17 37.46951 113.52554 40044 ft 424 kts 204°
2026-05-06 04:18 37.41246 113.50623 40056 ft 425 kts 204°
2026-05-06 04:18 37.35513 113.48691 40069 ft 424 kts 204°
2026-05-06 04:19 37.29827 113.46780 40067 ft 426 kts 204°
2026-05-06 04:19 37.24085 113.44849 40076 ft 426 kts 204°
2026-05-06 04:20 37.18360 113.42930 40065 ft 427 kts 204°
2026-05-06 04:20 37.12606 113.40998 40058 ft 427 kts 204°
2026-05-06 04:21 37.06852 113.39075 40055 ft 428 kts 204°
2026-05-06 04:21 37.01075 113.37146 40053 ft 429 kts 204°
2026-05-06 04:22 36.95325 113.35227 40050 ft 428 kts 204°
2026-05-06 04:23 36.86611 113.32323 40055 ft 432 kts 203°
2026-05-06 04:23 36.80790 113.30389 40062 ft 431 kts 203°
2026-05-06 04:24 36.75008 113.28471 40056 ft 434 kts 203°
2026-05-06 04:24 36.69162 113.26533 40061 ft 434 kts 203°
2026-05-06 04:25 36.63296 113.24599 40058 ft 436 kts 203°
2026-05-06 04:25 36.57435 113.22658 40037 ft 436 kts 202°
2026-05-06 04:26 36.51564 113.20727 40022 ft 433 kts 203°
2026-05-06 04:26 36.45702 113.18796 40003 ft 437 kts 203°
2026-05-06 04:27 36.39819 113.16860 40000 ft 438 kts 202°
2026-05-06 04:27 36.33888 113.14916 39998 ft 439 kts 202°
2026-05-06 04:28 36.28007 113.12990 39996 ft 439 kts 203°
2026-05-06 04:28 36.22194 113.10677 40004 ft 434 kts 208°
2026-05-06 04:29 36.16612 113.07818 39999 ft 434 kts 210°
2026-05-06 04:29 36.11033 113.04913 40004 ft 436 kts 210°
2026-05-06 04:30 36.05423 113.01994 40009 ft 435 kts 210°
2026-05-06 04:30 35.99850 112.99098 40010 ft 436 kts 210°
2026-05-06 04:31 35.94239 112.96187 40017 ft 437 kts 210°
2026-05-06 04:31 35.88612 112.93269 40015 ft 437 kts 210°
2026-05-06 04:32 35.82999 112.90362 40013 ft 436 kts 210°
2026-05-06 04:32 35.77401 112.87467 39997 ft 435 kts 210°
2026-05-06 04:33 35.71799 112.84547 39991 ft 435 kts 210°
2026-05-06 04:33 35.66230 112.81654 39997 ft 436 kts 210°
2026-05-06 04:34 35.60647 112.78754 39988 ft 436 kts 210°
2026-05-06 04:34 35.55056 112.75849 39991 ft 435 kts 210°
2026-05-06 04:35 35.49495 112.72949 39982 ft 434 kts 210°
2026-05-06 04:35 35.43921 112.70045 39984 ft 435 kts 210°
2026-05-06 04:36 35.38354 112.67151 39982 ft 436 kts 209°
2026-05-06 04:36 35.32744 112.64239 39972 ft 436 kts 210°
2026-05-06 04:37 35.27186 112.61360 39975 ft 435 kts 210°
2026-05-06 04:37 35.21598 112.58468 39968 ft 435 kts 210°
2026-05-06 04:38 35.16014 112.55599 39957 ft 435 kts 209°
2026-05-06 04:38 35.10389 112.52879 39944 ft 439 kts 206°
2026-05-06 04:39 35.04541 112.50665 39922 ft 439 kts 204°
2026-05-06 04:39 34.98684 112.48510 39908 ft 439 kts 204°
2026-05-06 04:40 34.92804 112.46348 39905 ft 441 kts 204°
2026-05-06 04:40 34.86901 112.44188 39900 ft 441 kts 204°
2026-05-06 04:41 34.80977 112.42152 39897 ft 444 kts 200°
2026-05-06 04:41 34.74897 112.40811 39895 ft 449 kts 194°
2026-05-06 04:42 34.68579 112.40264 39895 ft 456 kts 188°
2026-05-06 04:42 34.62175 112.40544 39896 ft 463 kts 183°
2026-05-06 04:43 34.55743 112.41103 39898 ft 463 kts 183°
2026-05-06 04:43 34.49295 112.41659 39896 ft 463 kts 183°
2026-05-06 04:44 34.42839 112.42210 39897 ft 464 kts 183°
2026-05-06 04:44 34.36385 112.42760 39899 ft 463 kts 183°
2026-05-06 04:45 34.29961 112.43304 39902 ft 464 kts 183°
2026-05-06 04:45 34.23506 112.43849 39905 ft 465 kts 183°
2026-05-06 04:46 34.17073 112.44399 39909 ft 464 kts 183°
2026-05-06 04:46 34.10630 112.44944 39915 ft 466 kts 182°
2026-05-06 04:47 34.04129 112.45496 39921 ft 467 kts 183°
2026-05-06 04:47 33.97647 112.46045 39924 ft 466 kts 183°
2026-05-06 04:48 33.91174 112.46593 39923 ft 466 kts 182°
2026-05-06 04:48 33.84701 112.47140 39919 ft 466 kts 182°
2026-05-06 04:49 33.78231 112.47687 39913 ft 465 kts 182°
2026-05-06 04:49 33.71761 112.48226 39906 ft 466 kts 182°
2026-05-06 04:50 33.65272 112.48772 39908 ft 465 kts 182°
2026-05-06 04:50 33.58815 112.49318 39901 ft 466 kts 182°
2026-05-06 04:51 33.52322 112.49868 39903 ft 467 kts 182°
2026-05-06 04:51 33.45810 112.50423 39900 ft 467 kts 182°
2026-05-06 04:52 33.39355 112.50971 39905 ft 467 kts 182°
2026-05-06 04:52 33.32834 112.51525 39901 ft 467 kts 182°
2026-05-06 04:53 33.26348 112.52076 39889 ft 467 kts 182°
2026-05-06 04:53 33.19868 112.52625 39897 ft 467 kts 182°
2026-05-06 04:54 33.13356 112.53175 39891 ft 467 kts 182°
2026-05-06 04:54 33.06862 112.53725 39889 ft 468 kts 182°
2026-05-06 04:55 33.00356 112.54237 39889 ft 466 kts 184°
2026-05-06 04:55 32.93875 112.54124 39890 ft 460 kts 191°
2026-05-06 04:56 32.87544 112.53199 39889 ft 455 kts 197°
2026-05-06 04:56 32.81393 112.51559 39882 ft 451 kts 202°
2026-05-06 04:57 32.75346 112.49567 39888 ft 452 kts 201°
2026-05-06 04:57 32.69272 112.47583 39893 ft 452 kts 201°
2026-05-06 04:58 32.63209 112.45602 39886 ft 451 kts 201°
2026-05-06 04:58 32.57120 112.43617 39892 ft 452 kts 201°
2026-05-06 04:59 32.51043 112.41637 39893 ft 452 kts 201°
2026-05-06 04:59 32.44958 112.39660 39896 ft 452 kts 201°
2026-05-06 05:00 32.38896 112.37690 39889 ft 452 kts 201°
2026-05-06 05:00 32.32810 112.35717 39895 ft 452 kts 201°
2026-05-06 05:01 32.26727 112.33747 39893 ft 453 kts 201°
2026-05-06 05:01 32.20644 112.31782 39892 ft 453 kts 200°
2026-05-06 05:02 32.14544 112.29812 39894 ft 453 kts 200°
2026-05-06 05:02 32.08461 112.27891 39891 ft 454 kts 198°
2026-05-06 05:03 32.02219 112.26475 39895 ft 458 kts 195°
2026-05-06 05:03 31.95936 112.25197 39901 ft 458 kts 195°
2026-05-06 05:04 31.89614 112.23915 39895 ft 457 kts 195°
2026-05-06 05:04 31.83335 112.22643 39900 ft 458 kts 195°
2026-05-06 05:05 31.77033 112.21368 39896 ft 458 kts 195°
2026-05-06 05:05 31.70744 112.20097 39894 ft 458 kts 195°
2026-05-06 05:06 31.64472 112.18832 39895 ft 458 kts 195°
2026-05-06 05:06 31.58206 112.17569 39904 ft 458 kts 195°
2026-05-06 05:07 31.51881 112.16296 39911 ft 459 kts 195°
2026-05-06 05:07 31.45587 112.15033 39907 ft 459 kts 195°
2026-05-06 05:08 31.39288 112.13713 39909 ft 457 kts 197°
2026-05-06 05:08 31.33047 112.12181 39916 ft 457 kts 197°
2026-05-06 05:09 31.26851 112.10662 39919 ft 457 kts 197°
2026-05-06 05:09 31.20604 112.09135 39921 ft 457 kts 197°
2026-05-06 05:10 31.14349 112.07606 39915 ft 457 kts 197°
2026-05-06 05:10 31.08111 112.06081 39915 ft 457 kts 197°
2026-05-06 05:11 31.01877 112.04562 39916 ft 457 kts 197°
2026-05-06 05:11 30.95597 112.03033 39908 ft 457 kts 197°
2026-05-06 05:12 30.89386 112.01523 39910 ft 458 kts 197°
2026-05-06 05:12 30.83114 112.00000 39904 ft 458 kts 197°
2026-05-06 05:13 30.76837 111.98477 39912 ft 459 kts 197°
2026-05-06 05:13 30.70589 111.96964 39892 ft 459 kts 197°
2026-05-06 05:14 30.64311 111.95448 39918 ft 460 kts 197°
2026-05-06 05:14 30.58036 111.93941 39898 ft 459 kts 197°
2026-05-06 05:15 30.51782 111.92441 39907 ft 460 kts 197°
2026-05-06 05:15 30.45503 111.90936 39913 ft 461 kts 198°
2026-05-06 05:16 30.39205 111.89429 39915 ft 462 kts 198°
2026-05-06 05:16 30.32873 111.87914 39906 ft 461 kts 197°
2026-05-06 05:17 30.26584 111.86413 39898 ft 462 kts 198°
2026-05-06 05:17 30.20265 111.84908 39917 ft 462 kts 198°
2026-05-06 05:18 30.13968 111.83406 39922 ft 463 kts 198°
2026-05-06 05:18 30.07661 111.81908 39916 ft 463 kts 198°
2026-05-06 05:19 30.01325 111.80404 39922 ft 463 kts 198°
2026-05-06 05:19 29.94987 111.78900 39925 ft 464 kts 198°
2026-05-06 05:20 29.88672 111.77404 39928 ft 464 kts 198°
2026-05-06 05:20 29.82313 111.75900 39916 ft 464 kts 198°
2026-05-06 05:21 29.75977 111.74403 39928 ft 464 kts 198°
2026-05-06 05:21 29.69623 111.72903 39938 ft 465 kts 198°
2026-05-06 05:22 29.63262 111.71405 39928 ft 465 kts 198°
2026-05-06 05:22 29.56914 111.69910 39938 ft 465 kts 198°
2026-05-06 05:23 29.50547 111.68415 39940 ft 466 kts 198°
2026-05-06 05:23 29.41001 111.66176 39944 ft 466 kts 198°
2026-05-06 05:24 29.34572 111.64945 39939 ft 472 kts 193°
2026-05-06 05:24 29.28023 111.64439 39960 ft 475 kts 189°
2026-05-06 05:25 29.21373 111.64094 39943 ft 475 kts 189°
2026-05-06 05:25 29.14769 111.63750 39950 ft 476 kts 189°
2026-05-06 05:26 29.08137 111.63402 39959 ft 476 kts 189°
2026-05-06 05:26 29.01505 111.63052 39957 ft 476 kts 189°
2026-05-06 05:27 28.94900 111.62704 39957 ft 475 kts 189°
2026-05-06 05:27 28.88274 111.62356 39965 ft 476 kts 189°
2026-05-06 05:28 28.81642 111.61832 39975 ft 474 kts 192°
2026-05-06 05:28 28.75097 111.61121 39976 ft 474 kts 192°
2026-05-06 05:29 28.68493 111.60403 39976 ft 474 kts 192°
2026-05-06 05:29 28.61893 111.59689 39987 ft 474 kts 192°
2026-05-06 05:30 28.55301 111.58977 39988 ft 474 kts 192°
2026-05-06 05:30 28.48750 111.58269 39993 ft 475 kts 192°
2026-05-06 05:31 28.42121 111.57555 40001 ft 475 kts 192°
2026-05-06 05:31 28.35517 111.56852 40023 ft 476 kts 192°
2026-05-06 05:32 28.28914 111.56155 40028 ft 476 kts 192°
2026-05-06 05:32 28.22290 111.55454 40038 ft 476 kts 192°
2026-05-06 05:33 28.15691 111.54757 40045 ft 476 kts 192°
2026-05-06 05:33 28.09082 111.54060 40049 ft 476 kts 192°
2026-05-06 05:34 28.02478 111.53364 40048 ft 476 kts 192°
2026-05-06 05:34 27.95860 111.52666 40056 ft 477 kts 192°
2026-05-06 05:35 27.89251 111.51974 40050 ft 477 kts 192°
2026-05-06 05:35 27.82620 111.51279 40050 ft 476 kts 192°
2026-05-06 05:36 27.76003 111.50587 40050 ft 477 kts 192°
2026-05-06 05:36 27.69368 111.49893 40055 ft 478 kts 192°
2026-05-06 05:37 27.62725 111.49200 40047 ft 477 kts 192°
2026-05-06 05:37 27.56096 111.48509 40049 ft 477 kts 192°
2026-05-06 05:38 27.49498 111.47823 40042 ft 477 kts 192°
2026-05-06 05:38 27.42867 111.47132 40044 ft 478 kts 192°
2026-05-06 05:39 27.36227 111.46443 40039 ft 478 kts 192°
2026-05-06 05:39 27.29545 111.45750 40032 ft 478 kts 192°
2026-05-06 05:40 27.22903 111.45061 40034 ft 478 kts 192°
2026-05-06 05:40 27.16263 111.44374 40029 ft 479 kts 192°
2026-05-06 05:41 27.09642 111.43690 40029 ft 478 kts 192°
2026-05-06 05:41 27.02945 111.42999 40031 ft 479 kts 192°
2026-05-06 05:42 26.96431 111.41866 40034 ft 472 kts 200°
2026-05-06 05:42 26.90203 111.39656 40034 ft 463 kts 210°
2026-05-06 05:43 26.84475 111.36483 40046 ft 455 kts 218°
2026-05-06 05:43 26.79172 111.32654 40049 ft 453 kts 220°
2026-05-06 05:44 26.73907 111.28771 40059 ft 453 kts 220°
2026-05-06 05:44 26.68643 111.24905 40065 ft 453 kts 220°
2026-05-06 05:45 26.63362 111.21036 40069 ft 453 kts 219°
2026-05-06 05:45 26.58051 111.17156 40066 ft 453 kts 219°
2026-05-06 05:46 26.52691 111.13456 40069 ft 454 kts 218°
2026-05-06 05:46 26.47282 111.09784 40080 ft 455 kts 218°
2026-05-06 05:47 26.41876 111.06106 40072 ft 454 kts 218°
2026-05-06 05:47 26.36482 111.02429 40072 ft 455 kts 218°
2026-05-06 05:48 26.31047 110.98725 40069 ft 455 kts 218°
2026-05-06 05:48 26.25651 110.95053 40061 ft 454 kts 218°
2026-05-06 05:49 26.20250 110.91378 40070 ft 455 kts 218°
2026-05-06 05:49 26.14815 110.87688 40081 ft 454 kts 218°
2026-05-06 05:50 26.09412 110.84021 40102 ft 455 kts 218°
2026-05-06 05:50 26.04000 110.80352 40126 ft 454 kts 218°
2026-05-06 05:51 25.98617 110.76705 40160 ft 454 kts 218°
2026-05-06 05:51 25.93202 110.73044 40158 ft 454 kts 218°
2026-05-06 05:52 25.87783 110.69381 40136 ft 454 kts 218°
2026-05-06 05:52 25.82384 110.65734 40118 ft 455 kts 218°
2026-05-06 05:53 25.76967 110.62082 40096 ft 455 kts 218°
2026-05-06 05:53 25.71548 110.58381 40082 ft 454 kts 219°
2026-05-06 05:54 25.66202 110.54656 40094 ft 453 kts 218°
2026-05-06 05:54 25.60858 110.50944 40109 ft 454 kts 219°
2026-05-06 05:55 25.55521 110.47240 40121 ft 454 kts 219°
2026-05-06 05:55 25.50266 110.43378 40122 ft 452 kts 220°
2026-05-06 05:56 25.45012 110.39481 40110 ft 453 kts 220°
2026-05-06 05:56 25.39778 110.35609 40096 ft 452 kts 220°
2026-05-06 05:57 25.34535 110.31703 40082 ft 453 kts 220°
2026-05-06 05:57 25.29314 110.27817 40070 ft 453 kts 220°
2026-05-06 05:58 25.24064 110.23915 40064 ft 453 kts 219°
2026-05-06 05:58 25.18833 110.20031 40062 ft 453 kts 220°
2026-05-06 05:59 25.13582 110.16112 40063 ft 453 kts 220°
2026-05-06 05:59 25.08343 110.12202 40063 ft 453 kts 220°
2026-05-06 06:00 25.03127 110.08317 40064 ft 453 kts 220°
2026-05-06 06:00 24.97901 110.04426 40065 ft 453 kts 220°
2026-05-06 06:01 24.92663 110.00530 40069 ft 454 kts 219°
2026-05-06 06:01 24.87425 109.96639 40071 ft 454 kts 219°
2026-05-06 06:02 24.82160 109.92730 40077 ft 455 kts 219°
2026-05-06 06:02 24.76928 109.88851 40081 ft 454 kts 219°
2026-05-06 06:03 24.71659 109.84946 40080 ft 455 kts 219°
2026-05-06 06:03 24.66395 109.81050 40072 ft 455 kts 219°
2026-05-06 06:04 24.61150 109.77148 40068 ft 455 kts 219°
2026-05-06 06:04 24.55865 109.73217 40055 ft 455 kts 219°
2026-05-06 06:05 24.50648 109.69338 40050 ft 456 kts 219°
2026-05-06 06:05 24.45378 109.65425 40049 ft 456 kts 219°
2026-05-06 06:06 24.40089 109.61504 40049 ft 456 kts 219°
2026-05-06 06:06 24.34830 109.57616 40054 ft 457 kts 219°
2026-05-06 06:07 24.29540 109.53720 40054 ft 456 kts 219°
2026-05-06 06:07 24.24251 109.49826 40061 ft 456 kts 219°
2026-05-06 06:08 24.18991 109.45955 40059 ft 457 kts 219°
2026-05-06 06:08 24.13696 109.42061 40054 ft 457 kts 219°
2026-05-06 06:09 24.08411 109.38178 40049 ft 457 kts 219°
2026-05-06 06:09 24.03108 109.34286 40049 ft 457 kts 219°
2026-05-06 06:10 23.97812 109.30403 40042 ft 457 kts 219°
2026-05-06 06:10 23.92512 109.26519 40042 ft 457 kts 219°
2026-05-06 06:11 23.87232 109.22656 40037 ft 457 kts 219°
2026-05-06 06:11 23.81754 109.19029 40035 ft 464 kts 210°
2026-05-06 06:12 23.75628 109.16676 40037 ft 473 kts 197°
2026-05-06 06:12 23.68990 109.15845 40035 ft 483 kts 184°
2026-05-06 06:13 23.62252 109.16473 40037 ft 487 kts 177°
2026-05-06 06:13 23.55470 109.17408 40036 ft 487 kts 176°
2026-05-06 06:14 23.48727 109.18327 40033 ft 487 kts 177°
2026-05-06 06:14 23.42005 109.19227 40031 ft 487 kts 177°
2026-05-06 06:15 23.35259 109.20121 40035 ft 487 kts 177°
2026-05-06 06:15 23.28510 109.21013 40034 ft 487 kts 176°
2026-05-06 06:16 23.21764 109.21904 40038 ft 487 kts 176°
2026-05-06 06:16 23.15009 109.22794 40044 ft 487 kts 176°
2026-05-06 06:17 23.08255 109.23685 40047 ft 486 kts 176°
2026-05-06 06:17 23.01557 109.24564 40054 ft 486 kts 176°
2026-05-06 06:18 22.94825 109.25451 40059 ft 486 kts 176°
2026-05-06 06:18 22.88091 109.26334 40052 ft 486 kts 176°
2026-05-06 06:19 22.81334 109.27221 39890 ft 487 kts 176°
2026-05-06 06:19 22.77939 109.27666 39733 ft 487 kts 176°
2026-05-06 06:19 22.74580 109.28106 39578 ft 487 kts 176°
2026-05-06 06:20 22.71169 109.28552 39420 ft 487 kts 176°
2026-05-06 06:20 22.67843 109.28987 39267 ft 487 kts 176°
2026-05-06 06:20 22.64458 109.29430 39077 ft 488 kts 176°
2026-05-06 06:20 22.61059 109.29875 38857 ft 488 kts 176°
2026-05-06 06:21 22.57672 109.30318 38639 ft 488 kts 176°
2026-05-06 06:21 22.54299 109.30759 38421 ft 488 kts 176°
2026-05-06 06:21 22.50895 109.31203 38217 ft 489 kts 176°
2026-05-06 06:21 22.47530 109.31642 38055 ft 488 kts 175°
2026-05-06 06:22 22.40749 109.32527 38049 ft 488 kts 175°
2026-05-06 06:22 22.33981 109.33409 38045 ft 488 kts 175°
2026-05-06 06:23 22.27207 109.34291 38041 ft 488 kts 175°
2026-05-06 06:23 22.20402 109.35175 38036 ft 488 kts 175°
2026-05-06 06:24 22.13664 109.36052 38035 ft 488 kts 175°
2026-05-06 06:24 22.06899 109.36929 38036 ft 488 kts 175°
2026-05-06 06:25 22.00106 109.37811 38033 ft 487 kts 175°
2026-05-06 06:26 21.89967 109.39124 38029 ft 487 kts 175°
2026-05-06 06:26 21.83211 109.39999 38029 ft 487 kts 175°
2026-05-06 06:27 21.76442 109.40875 38029 ft 487 kts 175°
2026-05-06 06:27 21.69732 109.41741 38026 ft 487 kts 175°
2026-05-06 06:28 21.63001 109.42960 38028 ft 489 kts 168°
2026-05-06 06:28 21.56468 109.45147 38025 ft 491 kts 160°
2026-05-06 06:29 21.50273 109.48289 38023 ft 492 kts 151°
2026-05-06 06:29 21.44339 109.51990 38019 ft 492 kts 150°
2026-05-06 06:30 21.38412 109.55628 38021 ft 491 kts 153°
2026-05-06 06:30 21.32174 109.58575 37846 ft 489 kts 161°
2026-05-06 06:30 21.28889 109.59719 37675 ft 488 kts 166°
2026-05-06 06:31 21.25592 109.60609 37482 ft 487 kts 169°
2026-05-06 06:31 21.22251 109.61262 37147 ft 486 kts 173°
2026-05-06 06:31 21.18899 109.61756 36816 ft 485 kts 174°
2026-05-06 06:31 21.15571 109.62226 36478 ft 485 kts 174°
2026-05-06 06:32 21.12178 109.62704 36141 ft 485 kts 174°
2026-05-06 06:32 21.08853 109.63176 35809 ft 485 kts 174°
2026-05-06 06:32 21.05463 109.63662 35473 ft 485 kts 174°
2026-05-06 06:32 21.02125 109.64144 35139 ft 484 kts 174°
2026-05-06 06:33 20.98760 109.64629 34805 ft 484 kts 174°
2026-05-06 06:33 20.95466 109.65108 34475 ft 478 kts 175°
2026-05-06 06:33 20.92169 109.65585 34138 ft 473 kts 175°
2026-05-06 06:33 20.88914 109.66055 33812 ft 474 kts 175°
2026-05-06 06:34 20.85606 109.66533 33478 ft 475 kts 175°
2026-05-06 06:34 20.82370 109.67001 33153 ft 475 kts 175°
2026-05-06 06:34 20.79128 109.67469 32825 ft 476 kts 175°
2026-05-06 06:34 20.75871 109.67939 32514 ft 474 kts 175°
2026-05-06 06:35 20.72601 109.68411 32207 ft 471 kts 175°
2026-05-06 06:35 20.69404 109.68872 31904 ft 470 kts 175°
2026-05-06 06:35 20.66175 109.69338 31597 ft 468 kts 175°
2026-05-06 06:35 20.62983 109.69797 31293 ft 466 kts 175°
2026-05-06 06:36 20.59801 109.70257 30991 ft 465 kts 174°
2026-05-06 06:36 20.56607 109.70879 30681 ft 464 kts 169°
2026-05-06 06:36 20.53526 109.71785 30383 ft 464 kts 164°
2026-05-06 06:36 20.50480 109.73007 30076 ft 463 kts 159°
2026-05-06 06:37 20.47558 109.74522 29768 ft 463 kts 153°
2026-05-06 06:37 20.44812 109.76290 29468 ft 466 kts 147°
2026-05-06 06:37 20.42165 109.78362 29164 ft 477 kts 143°
2026-05-06 06:37 20.39539 109.80628 28857 ft 479 kts 142°
2026-05-06 06:38 20.36979 109.82879 28561 ft 477 kts 141°
2026-05-06 06:38 20.34396 109.85152 28260 ft 475 kts 141°
2026-05-06 06:38 20.31872 109.87362 27968 ft 472 kts 142°
2026-05-06 06:38 20.29311 109.89594 27671 ft 470 kts 142°
2026-05-06 06:39 20.26766 109.91805 27375 ft 468 kts 142°
2026-05-06 06:39 20.24252 109.93984 27080 ft 465 kts 142°
2026-05-06 06:39 20.21732 109.96167 26783 ft 463 kts 142°
2026-05-06 06:39 20.19220 109.98341 26487 ft 461 kts 142°
2026-05-06 06:40 20.16744 110.00485 26193 ft 458 kts 142°
2026-05-06 06:40 20.14282 110.02615 25899 ft 456 kts 142°
2026-05-06 06:40 20.11820 110.04745 25611 ft 453 kts 142°
2026-05-06 06:40 20.09354 110.06875 25515 ft 452 kts 142°
2026-05-06 06:41 20.06845 110.08839 25504 ft 450 kts 151°
2026-05-06 06:41 20.03978 110.10236 25511 ft 447 kts 163°
2026-05-06 06:41 20.00942 110.10955 25515 ft 444 kts 176°
2026-05-06 06:41 19.97885 110.11002 25516 ft 440 kts 187°
2026-05-06 06:42 19.94853 110.10390 25518 ft 436 kts 199°
2026-05-06 06:42 19.92016 110.09207 25393 ft 434 kts 206°
2026-05-06 06:42 19.89262 110.07867 25247 ft 432 kts 207°
2026-05-06 06:42 19.86529 110.06515 25101 ft 431 kts 207°
2026-05-06 06:43 19.83804 110.05173 24955 ft 430 kts 207°
2026-05-06 06:43 19.81075 110.03841 24808 ft 429 kts 207°
2026-05-06 06:43 19.78367 110.02526 24662 ft 428 kts 206°
2026-05-06 06:43 19.75658 110.01215 24517 ft 427 kts 206°
2026-05-06 06:44 19.72951 109.99908 24371 ft 425 kts 206°
2026-05-06 06:44 19.70264 109.98611 24225 ft 424 kts 206°
2026-05-06 06:44 19.67527 109.97292 24077 ft 423 kts 206°
2026-05-06 06:44 19.64863 109.96009 23932 ft 422 kts 206°
2026-05-06 06:45 19.62151 109.94704 23785 ft 421 kts 206°
2026-05-06 06:45 19.59501 109.93430 23569 ft 420 kts 206°
2026-05-06 06:45 19.56829 109.92145 23184 ft 417 kts 206°
2026-05-06 06:45 19.54198 109.90879 22697 ft 415 kts 206°
2026-05-06 06:46 19.51551 109.89606 22213 ft 412 kts 206°
2026-05-06 06:46 19.48927 109.88346 21739 ft 410 kts 206°
2026-05-06 06:46 19.46331 109.87098 21260 ft 408 kts 206°
2026-05-06 06:46 19.43766 109.85866 20788 ft 406 kts 206°
2026-05-06 06:47 19.41195 109.84631 20312 ft 404 kts 206°
2026-05-06 06:47 19.38632 109.83402 19838 ft 402 kts 206°
2026-05-06 06:47 19.36079 109.82184 19360 ft 400 kts 205°
2026-05-06 06:47 19.33520 109.80970 18882 ft 398 kts 205°
2026-05-06 06:48 19.31007 109.79781 18411 ft 396 kts 205°
2026-05-06 06:48 19.28471 109.78579 17931 ft 394 kts 205°
2026-05-06 06:48 19.25961 109.77389 17447 ft 393 kts 205°
2026-05-06 06:48 19.23493 109.76215 16991 ft 391 kts 205°
2026-05-06 06:49 19.20997 109.75014 16523 ft 389 kts 205°
2026-05-06 06:49 19.18525 109.73821 16055 ft 388 kts 205°
2026-05-06 06:49 19.16070 109.72638 15591 ft 386 kts 206°
2026-05-06 06:49 19.13615 109.71455 15135 ft 385 kts 206°
2026-05-06 06:50 19.11198 109.70289 14690 ft 383 kts 205°
2026-05-06 06:50 19.08765 109.69117 14222 ft 381 kts 206°
2026-05-06 06:50 19.06330 109.67945 13763 ft 380 kts 206°
2026-05-06 06:50 19.03918 109.66784 13310 ft 378 kts 206°
2026-05-06 06:51 19.01538 109.65639 12855 ft 377 kts 206°
2026-05-06 06:51 18.99142 109.64484 12395 ft 375 kts 206°
2026-05-06 06:51 18.96750 109.63334 11959 ft 372 kts 206°
2026-05-06 06:51 18.94407 109.62208 11802 ft 360 kts 206°
2026-05-06 06:52 18.92168 109.61133 11802 ft 345 kts 206°
2026-05-06 06:52 18.90016 109.60098 11788 ft 331 kts 206°
2026-05-06 06:52 18.87934 109.59098 11783 ft 317 kts 206°
2026-05-06 06:52 18.85950 109.58145 11792 ft 304 kts 206°
2026-05-06 06:53 18.84061 109.57237 11785 ft 292 kts 206°
2026-05-06 06:53 18.82222 109.56354 11769 ft 281 kts 206°
2026-05-06 06:53 18.80429 109.55492 11544 ft 282 kts 206°
2026-05-06 06:53 18.78620 109.54622 11245 ft 282 kts 206°
2026-05-06 06:54 18.76823 109.53759 10954 ft 282 kts 206°
2026-05-06 06:54 18.75038 109.52903 10675 ft 282 kts 206°
2026-05-06 06:54 18.73237 109.52040 10393 ft 282 kts 206°
2026-05-06 06:54 18.71438 109.51178 10102 ft 282 kts 206°
2026-05-06 06:55 18.69639 109.50315 9820 ft 282 kts 206°
2026-05-06 06:55 18.67855 109.49459 9534 ft 282 kts 206°
2026-05-06 06:55 18.66044 109.48591 9244 ft 282 kts 206°
2026-05-06 06:55 18.64250 109.47731 8963 ft 282 kts 206°
2026-05-06 06:56 18.62468 109.46877 8670 ft 282 kts 206°
2026-05-06 06:56 18.60664 109.46012 8389 ft 282 kts 206°
2026-05-06 06:56 18.58872 109.45153 8108 ft 282 kts 206°
2026-05-06 06:56 18.57084 109.44298 7969 ft 275 kts 206°
2026-05-06 06:57 18.55372 109.43479 7954 ft 264 kts 206°
2026-05-06 06:57 18.53682 109.42670 7967 ft 265 kts 206°
2026-05-06 06:57 18.51983 109.41857 7964 ft 266 kts 206°
2026-05-06 06:57 18.50291 109.41045 7961 ft 266 kts 207°
2026-05-06 06:58 18.48728 109.40005 7950 ft 265 kts 221°
2026-05-06 06:58 18.47420 109.38617 7665 ft 269 kts 231°
2026-05-06 06:58 18.46227 109.37073 7192 ft 274 kts 232°
2026-05-06 06:58 18.45032 109.35483 6723 ft 273 kts 232°
2026-05-06 06:59 18.43856 109.33929 6268 ft 271 kts 231°
2026-05-06 06:59 18.42678 109.32388 5811 ft 270 kts 231°
2026-05-06 06:59 18.41491 109.30842 5352 ft 269 kts 230°
2026-05-06 06:59 18.40324 109.29328 5023 ft 263 kts 230°
2026-05-06 07:00 18.39200 109.27827 4946 ft 255 kts 236°
2026-05-06 07:00 18.38465 109.26160 4943 ft 246 kts 254°
2026-05-06 07:00 18.38152 109.24392 4795 ft 243 kts 261°
2026-05-06 07:00 18.37937 109.22601 4482 ft 248 kts 262°
2026-05-06 07:01 18.37725 109.20789 4178 ft 252 kts 262°
2026-05-06 07:01 18.37491 109.18955 3961 ft 251 kts 257°
2026-05-06 07:01 18.36741 109.17368 3924 ft 237 kts 220°
2026-05-06 07:01 18.35328 109.16603 3882 ft 225 kts 187°
2026-05-06 07:02 18.33779 109.16662 3688 ft 221 kts 170°
2026-05-06 07:02 18.32263 109.16920 3481 ft 220 kts 169°
2026-05-06 07:02 18.30732 109.17176 3265 ft 220 kts 170°
2026-05-06 07:02 18.29238 109.17430 3070 ft 217 kts 163°
2026-05-06 07:03 18.28007 109.18225 3008 ft 204 kts 126°
2026-05-06 07:03 18.27477 109.19560 3009 ft 193 kts 95°
2026-05-06 07:03 18.27572 109.20922 3017 ft 182 kts 83°
2026-05-06 07:03 18.27763 109.22204 3032 ft 169 kts 83°
2026-05-06 07:04 18.27942 109.23385 3015 ft 157 kts 83°
2026-05-06 07:04 18.28110 109.24491 2832 ft 151 kts 83°
2026-05-06 07:04 18.28266 109.25577 2612 ft 147 kts 83°
2026-05-06 07:04 18.28410 109.26646 2411 ft 147 kts 84°
2026-05-06 07:05 18.28549 109.27719 2213 ft 147 kts 84°
2026-05-06 07:05 18.28686 109.28782 2020 ft 146 kts 84°
2026-05-06 07:05 18.28822 109.29847 1830 ft 146 kts 84°
2026-05-06 07:05 18.28957 109.30905 1647 ft 146 kts 84°
2026-05-06 07:06 18.29093 109.31963 1468 ft 145 kts 83°
2026-05-06 07:06 18.29230 109.33024 1290 ft 145 kts 83°
2026-05-06 07:06 18.29366 109.34073 1112 ft 145 kts 83°
2026-05-06 07:06 18.29504 109.35140 928 ft 144 kts 83°
2026-05-06 07:07 18.29638 109.36176 751 ft 144 kts 83°
2026-05-06 07:07 18.29774 109.37223 566 ft 143 kts 83°
2026-05-06 07:07 18.29909 109.38271 380 ft 143 kts 83°
2026-05-06 07:07 18.30044 109.39307 203 ft 139 kts 83°
2026-05-06 07:08 18.30171 109.40283 113 ft 117 kts 81°
2026-05-06 07:08 18.30240 109.40814 112 ft 46 kts 82°
2026-05-06 07:08 18.30281 109.41131 112 ft 35 kts 82°
2026-05-06 07:08 18.30314 109.41381 113 ft 33 kts 82°
2026-05-06 07:09 18.30341 109.41587 113 ft 23 kts 81°
2026-05-06 07:09 18.30386 109.41734 113 ft 17 kts 56°
2026-05-06 07:09 18.30454 109.41827 113 ft 7 kts 51°
2026-05-06 07:09 18.30488 109.41863 113 ft 5 kts 26°
2026-05-06 07:10 18.30523 109.41863 113 ft 2 kts 337°
2026-05-06 07:10 18.30540 109.41840 113 ft 5 kts 287°
2026-05-06 07:10 18.30541 109.41791 113 ft 7 kts 263°
2026-05-06 07:10 18.30532 109.41721 113 ft 11 kts 262°
2026-05-06 07:11 18.30519 109.41623 113 ft 16 kts 262°
2026-05-06 07:11 18.30502 109.41492 113 ft 19 kts 262°
2026-05-06 07:11 18.30483 109.41350 113 ft 19 kts 262°
2026-05-06 07:11 18.30465 109.41206 113 ft 19 kts 262°
2026-05-06 07:12 18.30448 109.41077 113 ft 13 kts 262°
2026-05-06 07:12 18.30441 109.41021 113 ft 3 kts 270°
2026-05-06 07:12 18.30459 109.41001 113 ft 5 kts 334°
2026-05-06 07:12 18.30490 109.40994 113 ft 4 kts 351°
2026-05-06 07:13 18.30531 109.40987 113 ft 6 kts 352°
2026-05-06 07:13 18.30586 109.40979 113 ft 8 kts 352°
2026-05-06 07:13 18.30620 109.40974 113 ft 3 kts 352°
2026-05-06 07:13 18.30650 109.40970 113 ft 4 kts 352°
2026-05-06 07:14 18.30666 109.40965 113 ft 1 kts 325°
2026-05-06 07:14 18.30669 109.40951 113 ft 2 kts 266°
2026-05-06 07:14 18.30666 109.40927 113 ft 3 kts 262°
2026-05-06 07:14 18.30663 109.40908 113 ft 2 kts 262°
2026-05-06 07:15 18.30661 109.40889 113 ft 2 kts 263°
2026-05-06 07:15 18.30660 109.40881 113 ft 1 kts 263°
2026-05-06 07:15 18.30659 109.40874 113 ft 0 kts 263°